• In Czech Republic
  • List of Countries
  • For 7 days
  • Water Temperature
  • Satellite Maps
  • Weather Map
  • Weather Widgets
  • user-avatar
    Login

    Hourly Weather Oktyabrskiy

    Today, 19 August, Sunday

    Time Temperature Precipitation Wind Pressure Humidity
    00:00 +6°C° 0 mm 2 mps 735 mmHg 91%
    01:00 +6°C° 0 mm 2 mps 735 mmHg 92%
    02:00 +6°C° 0 mm 2 mps 735 mmHg 93%
    03:00 +5°C° 0 mm 2 mps 735 mmHg 94%
    04:00 +6°C° 0 mm 1 mps 736 mmHg 95%
    05:00 +7°C° 0 mm 1 mps 736 mmHg 91%
    06:00 +8°C° 0 mm 1 mps 736 mmHg 88%
    07:00 +9°C° 0 mm 1 mps 736 mmHg 84%
    08:00 +10°C° 0 mm 2 mps 736 mmHg 77%
    09:00 +13°C° 0 mm 2 mps 736 mmHg 70%
    10:00 +15°C° 0 mm 2 mps 736 mmHg 63%
    11:00 +16°C° 0 mm 2 mps 736 mmHg 61%
    12:00 +17°C° 0 mm 2 mps 736 mmHg 58%
    13:00 +17°C° 0 mm 2 mps 735 mmHg 55%
    14:00 +17°C° 0.1 mm 2 mps 735 mmHg 56%
    15:00 +17°C° 0.1 mm 2 mps 735 mmHg 58%
    16:00 +17°C° 0.1 mm 2 mps 735 mmHg 59%
    17:00 +16°C° 0 mm 2 mps 735 mmHg 66%
    18:00 +15°C° 0 mm 2 mps 734 mmHg 73%
    19:00 +13°C° 0 mm 1 mps 734 mmHg 79%
    20:00 +12°C° 0 mm 1 mps 734 mmHg 82%
    21:00 +11°C° 0 mm 1 mps 734 mmHg 85%
    22:00 +9°C° 0 mm 1 mps 734 mmHg 88%
    23:00 +8°C° 0 mm 0 mps 734 mmHg 89%

    Tomorrow, 20 August, Monday

    Time Temperature Precipitation Wind Pressure Humidity
    00:00 +7°C° 0 mm 0 mps 734 mmHg 89%
    01:00 +7°C° 0 mm 0 mps 734 mmHg 90%
    02:00 +7°C° 0 mm 0 mps 734 mmHg 90%
    03:00 +6°C° 0 mm 0 mps 734 mmHg 90%
    04:00 +6°C° 0 mm 0 mps 734 mmHg 91%
    05:00 +7°C° 0 mm 0 mps 734 mmHg 88%
    06:00 +8°C° 0 mm 0 mps 734 mmHg 86%
    07:00 +10°C° 0 mm 0 mps 734 mmHg 84%
    08:00 +12°C° 0 mm 0 mps 733 mmHg 76%
    09:00 +14°C° 0 mm 1 mps 733 mmHg 68%
    10:00 +16°C° 0 mm 1 mps 733 mmHg 61%
    11:00 +17°C° 0 mm 2 mps 733 mmHg 58%
    12:00 +18°C° 0 mm 2 mps 733 mmHg 56%
    13:00 +18°C° 0 mm 2 mps 732 mmHg 53%
    14:00 +18°C° 0 mm 2 mps 732 mmHg 55%
    15:00 +18°C° 0 mm 3 mps 732 mmHg 56%
    16:00 +18°C° 0 mm 3 mps 731 mmHg 57%
    17:00 +17°C° 0 mm 2 mps 731 mmHg 64%
    18:00 +16°C° 0 mm 2 mps 731 mmHg 72%
    19:00 +15°C° 0 mm 2 mps 731 mmHg 79%
    20:00 +14°C° 0.1 mm 2 mps 730 mmHg 82%
    21:00 +13°C° 0.1 mm 2 mps 730 mmHg 85%
    22:00 +13°C° 0.1 mm 2 mps 730 mmHg 88%
    23:00 +13°C° 0.7 mm 2 mps 730 mmHg 91%

    Day after tomorrow, 21 August, Tuesday

    Time Temperature Precipitation Wind Pressure Humidity
    00:00 +13°C° 0.7 mm 2 mps 729 mmHg 93%
    01:00 +13°C° 0.7 mm 2 mps 729 mmHg 96%
    02:00 +13°C° 0.6 mm 2 mps 729 mmHg 97%
    03:00 +13°C° 0.6 mm 2 mps 728 mmHg 97%
    04:00 +13°C° 0.6 mm 2 mps 728 mmHg 98%
    05:00 +13°C° 0 mm 2 mps 728 mmHg 98%
    06:00 +14°C° 0 mm 2 mps 728 mmHg 98%
    07:00 +14°C° 0 mm 1 mps 728 mmHg 97%
    08:00 +15°C° 0 mm 2 mps 728 mmHg 96%
    09:00 +15°C° 0 mm 2 mps 729 mmHg 95%
    10:00 +16°C° 0 mm 2 mps 729 mmHg 93%
    11:00 +16°C° 0 mm 2 mps 729 mmHg 92%
    12:00 +17°C° 0 mm 2 mps 729 mmHg 90%
    13:00 +17°C° 0 mm 2 mps 729 mmHg 89%
    14:00 +17°C° 0 mm 2 mps 729 mmHg 87%
    15:00 +18°C° 0 mm 2 mps 729 mmHg 85%
    16:00 +19°C° 0 mm 1 mps 729 mmHg 83%
    17:00 +18°C° 0 mm 1 mps 728 mmHg 85%
    18:00 +18°C° 0 mm 1 mps 728 mmHg 88%
    19:00 +16°C° 0 mm 1 mps 728 mmHg 90%
    20:00 +16°C° 0 mm 2 mps 728 mmHg 92%
    21:00 +15°C° 0 mm 2 mps 728 mmHg 94%
    22:00 +14°C° 0 mm 2 mps 728 mmHg 96%
    23:00 +14°C° 0.1 mm 2 mps 727 mmHg 97%

    22 August, Wednesday

    Time Temperature Precipitation Wind Pressure Humidity
    00:00 +14°C° 0.1 mm 2 mps 727 mmHg 97%
    01:00 +14°C° 0.1 mm 2 mps 727 mmHg 97%
    02:00 +14°C° 0.1 mm 2 mps 727 mmHg 97%
    03:00 +14°C° 0.1 mm 2 mps 726 mmHg 98%
    04:00 +14°C° 0.1 mm 2 mps 726 mmHg 98%
    05:00 +14°C° 0 mm 3 mps 726 mmHg 97%
    06:00 +14°C° 0 mm 3 mps 726 mmHg 96%
    07:00 +16°C° 0 mm 3 mps 726 mmHg 95%
    08:00 +17°C° 0 mm 3 mps 726 mmHg 89%
    09:00 +19°C° 0 mm 4 mps 725 mmHg 82%
    10:00 +20°C° 0 mm 4 mps 725 mmHg 76%
    11:00 +21°C° 0.3 mm 4 mps 725 mmHg 73%
    12:00 +22°C° 0.3 mm 5 mps 725 mmHg 69%
    13:00 +23°C° 0.3 mm 5 mps 724 mmHg 66%
    14:00 +22°C° 0.7 mm 5 mps 724 mmHg 70%
    15:00 +22°C° 0.7 mm 5 mps 724 mmHg 73%
    16:00 +21°C° 0.7 mm 5 mps 724 mmHg 77%
    17:00 +19°C° 0.6 mm 4 mps 724 mmHg 82%
    18:00 +18°C° 0.6 mm 4 mps 724 mmHg 88%
    19:00 +16°C° 0.6 mm 3 mps 725 mmHg 94%
    20:00 +14°C° 0.2 mm 3 mps 725 mmHg 95%
    21:00 +13°C° 0.2 mm 3 mps 725 mmHg 96%
    22:00 +13°C° 0.2 mm 3 mps 725 mmHg 96%
    23:00 +12°C° 0 mm 3 mps 725 mmHg 96%

    23 August, Thursday

    Time Temperature Precipitation Wind Pressure Humidity
    00:00 +11°C° 0 mm 3 mps 725 mmHg 96%
    01:00 +11°C° 0 mm 3 mps 725 mmHg 96%
    02:00 +10°C° 0 mm 3 mps 725 mmHg 96%
    03:00 +9°C° 0 mm 3 mps 725 mmHg 97%
    04:00 +8°C° 0 mm 3 mps 725 mmHg 97%
    05:00 +8°C° 0 mm 3 mps 726 mmHg 96%
    06:00 +8°C° 0 mm 3 mps 726 mmHg 96%
    07:00 +8°C° 0 mm 4 mps 726 mmHg 95%
    08:00 +8°C° 0 mm 4 mps 727 mmHg 93%
    09:00 +8°C° 0 mm 4 mps 727 mmHg 91%
    10:00 +8°C° 0 mm 4 mps 727 mmHg 88%
    11:00 +8°C° 0 mm 4 mps 727 mmHg 85%
    12:00 +10°C° 0 mm 4 mps 728 mmHg 82%
    13:00 +9°C° 0 mm 5 mps 728 mmHg 80%
    14:00 +9°C° 0.1 mm 5 mps 728 mmHg 77%
    15:00 +10°C° 0.1 mm 5 mps 728 mmHg 75%
    16:00 +10°C° 0.1 mm 5 mps 728 mmHg 73%
    17:00 +11°C° 0.1 mm 4 mps 729 mmHg 78%
    18:00 +10°C° 0.1 mm 4 mps 729 mmHg 82%
    19:00 +8°C° 0.1 mm 4 mps 729 mmHg 87%
    20:00 +7°C° 0 mm 4 mps 729 mmHg 89%
    21:00 +7°C° 0 mm 4 mps 729 mmHg 91%
    22:00 +6°C° 0 mm 4 mps 729 mmHg 94%
    23:00 +6°C° 0 mm 4 mps 730 mmHg 94%

    24 August, Friday

    Time Temperature Precipitation Wind Pressure Humidity
    00:00 +6°C° 0 mm 4 mps 730 mmHg 93%
    01:00 +6°C° 0 mm 4 mps 730 mmHg 93%
    02:00 +6°C° 0 mm 4 mps 730 mmHg 93%
    03:00 +5°C° 0 mm 4 mps 730 mmHg 93%
    04:00 +5°C° 0 mm 4 mps 730 mmHg 93%
    05:00 +5°C° 0 mm 4 mps 731 mmHg 91%
    06:00 +6°C° 0 mm 4 mps 731 mmHg 89%
    07:00 +6°C° 0 mm 4 mps 731 mmHg 87%
    08:00 +8°C° 0 mm 4 mps 731 mmHg 80%
    09:00 +9°C° 0 mm 5 mps 732 mmHg 72%
    10:00 +12°C° 0 mm 5 mps 732 mmHg 65%
    11:00 +13°C° 0 mm 5 mps 732 mmHg 62%
    12:00 +15°C° 0 mm 5 mps 731 mmHg 58%
    13:00 +16°C° 0 mm 5 mps 731 mmHg 55%
    14:00 +16°C° 0 mm 5 mps 731 mmHg 59%
    15:00 +17°C° 0 mm 4 mps 731 mmHg 62%
    16:00 +18°C° 0 mm 4 mps 731 mmHg 66%
    17:00 +15°C° 0 mm 4 mps 731 mmHg 73%
    18:00 +14°C° 0 mm 3 mps 731 mmHg 80%
    19:00 +14°C° 0 mm 2 mps 731 mmHg 87%
    20:00 +13°C° 0 mm 2 mps 731 mmHg 90%
    21:00 +13°C° 0 mm 2 mps 731 mmHg 93%
    22:00 +12°C° 0 mm 2 mps 731 mmHg 96%
    23:00 +10°C° 0 mm 2 mps 731 mmHg 96%
    Show more